Zurück zum Katalog

METEOR 2-8 DEB

LostPO
NORAD 36331·DEBRIS·🇷🇺 Russia

Gestartet Mar 25, 1982 von Plesetsk Cosmodrome

Loading…

Nächste Überflüge (nächste 24 Stunden)

TLE

VeraltetSource: Space-Track

Epoche: Jul 17, 2023, 05:07 UTC

1 36331U 82025R   23198.21335865  .00004669  00000-0  23614-2 0  9992
2 36331  82.5297  15.0976 0006599 359.5512   0.5659 14.15962895515554

Verfolge METEOR 2-8 DEB in Echtzeit mit AllMySat

Download on the App Store